Weather History for Clinton-Sherman, OK

Change the Weather History Date:

Monday, January 2, 2006

  Actual Average Record
Temperature  
Mean Temperature 51 °F -  
Max Temperature 63 °F 47 °F 77 °F (1997)
Min Temperature 39 °F 28 °F 16 °F (2011)
Degree Days  
Heating Degree Days 14    
Growing Degree Days 1 (Base 50)    
Moisture  
Dew Point 32 °F    
Average Humidity 49    
Maximum Humidity 66    
Minimum Humidity 29    
Precipitation  
Precipitation 0.00 in - - ()
Sea Level Pressure  
Sea Level Pressure 29.92 in    
Wind  
Wind Speed 17 mph (WNW)    
Max Wind Speed 25 mph    
Max Gust Speed 33 mph    
Visibility 10 miles    
Events      
Averages and records for this station are not official NWS values.
T = Trace of Precipitation, MM = Missing Value Source: NWS Daily Summary

Daily Weather History Graph

Daily Weather History Graph

Search for Another Location

Airport:

Trip Planner

Search our weather history database for the weather conditions in past years. The results will help you decide how hot, cold, wet, or windy it might be!

Date:

Astronomy

Jan. 02, 2006 Rise Set
Actual Time 7:45 AM CST 5:36 PM CST
Civil Twilight 7:17 AM CST 6:04 PM CST
Nautical Twilight 6:46 AM CST 6:35 PM CST
Astronomical Twilight 6:15 AM CST 7:06 PM CST
Moon 10:11 AM CST (1/2) 8:45 PM CST (1/2)
Length of Visible Light 10h 46m
Length of Day
9h 50m
Waxing Crescent, 10% of the Moon is Illuminated
Jan 2
Waxing Crescent
Jan 6
First Quarter
Jan 14
Full
Jan 22
Last Quarter
Jan 29
New

Hourly Weather History & Observations

Time (CST) Temp. Windchill Dew Point Humidity Pressure Visibility Wind Dir Wind Speed Gust Speed Precip Events Conditions
12:53 AM 51.1 °F - 39.9 °F 66% 29.69 in 10.0 mi NW 24.2 mph - N/A   Clear
1:53 AM 51.1 °F - 39.0 °F 63% 29.70 in 10.0 mi NW 25.3 mph 33.4 mph N/A   Clear
2:53 AM 50.0 °F - 37.0 °F 61% 29.73 in 10.0 mi NW 21.9 mph - N/A   Clear
3:53 AM 48.9 °F - 35.1 °F 59% 29.76 in 10.0 mi NW 17.3 mph - N/A   Clear
4:53 AM 46.9 °F - 32.0 °F 56% 29.78 in 10.0 mi NNW 18.4 mph - N/A   Clear
6:53 AM 45.0 °F 38.9 °F 28.9 °F 53% 29.89 in 10.0 mi WNW 12.7 mph - N/A   Clear
7:53 AM 39.9 °F 31.8 °F 28.9 °F 65% 29.92 in 10.0 mi West 15.0 mph - N/A   Clear
8:53 AM 45.0 °F 38.2 °F 30.0 °F 56% 29.96 in 10.0 mi WNW 15.0 mph - N/A   Clear
9:53 AM 50.0 °F - 30.9 °F 48% 29.99 in 10.0 mi NW 16.1 mph - N/A   Clear
10:53 AM 53.1 °F - 33.1 °F 47% 29.99 in 10.0 mi NNW 16.1 mph - N/A   Clear
11:53 AM 57.9 °F - 35.1 °F 42% 29.97 in 10.0 mi NW 11.5 mph - N/A   Clear
12:53 PM 61.0 °F - 33.1 °F 35% 29.98 in 10.0 mi NW 16.1 mph - N/A   Clear
1:53 PM 62.1 °F - 33.1 °F 34% 29.96 in 10.0 mi NW 15.0 mph - N/A   Clear
2:53 PM 63.0 °F - 32.0 °F 31% 29.96 in 10.0 mi NW 10.4 mph - N/A   Clear
3:53 PM 63.0 °F - 30.0 °F 29% 29.97 in 10.0 mi West 4.6 mph - N/A   Clear
4:53 PM 60.1 °F - 33.1 °F 36% 29.99 in 10.0 mi WSW 5.8 mph - N/A   Clear
5:53 PM 54.0 °F - 28.9 °F 38% 30.01 in 10.0 mi WSW 5.8 mph - N/A   Clear
6:53 PM 48.9 °F - 28.9 °F 46% 30.01 in 10.0 mi South 5.8 mph - N/A   Clear
7:53 PM 45.0 °F 40.6 °F 28.0 °F 52% 30.01 in 10.0 mi SSE 8.1 mph - N/A   Clear
8:53 PM 46.0 °F 42.5 °F 28.0 °F 50% 29.99 in 10.0 mi South 6.9 mph - N/A   Clear
10:53 PM 43.0 °F 38.2 °F 28.0 °F 56% 29.99 in 10.0 mi South 8.1 mph - N/A   Clear
11:53 PM 43.0 °F 38.2 °F 28.0 °F 56% 29.97 in 10.0 mi South 8.1 mph - N/A   Clear